QPF
0.02 0.02 0.02 0.01 0.01 0.02 0.03 0.02 0.02 0.02 0.02 0.03 0.03 0.03 0.02 0.01 0.01 0.01 0.01 0.01 0.01 0.02 0.03 0.04 0.05 0.05 0.06 0.07 0.08 0.10 0.10 0.10 0.14 0.13 0.11 0.12 0.14 0.11 0.10 0.11 0.13 0.09 0.07
0.01 0.01 0.03 0.02 0.01 0.01 0.02 0.02 0.02 0.04 0.03 0.03 0.03 0.02 0.01 0.01 0.01 0.00 0.00 0.00 0.00 0.01 0.01 0.01 0.02 0.02 0.02 0.02 0.03 0.05 0.05 0.05 0.09 0.09 0.09 0.07 0.07 0.06 0.06 0.06 0.06 0.04 0.03
0.03 0.03 0.02 0.02 0.02 0.03 0.04 0.04 0.05 0.05 0.04 0.03 0.03 0.02 0.02 0.01 0.01 0.00 0.00 0.00 0.00 0.00 0.00 0.00 0.00 0.00 0.00 0.01 0.02 0.03 0.03 0.04 0.05 0.08 0.09 0.07 0.05 0.06 0.07 0.07 0.04 0.04 0.04
0.07 0.05 0.03 0.03 0.03 0.04 0.05 0.05 0.04 0.04 0.04 0.05 0.06 0.05 0.04 0.03 0.03 0.01 0.00 0.00 0.00 0.00 0.00 0.00 0.00 0.00 0.00 0.00 0.01 0.01 0.02 0.03 0.03 0.05 0.07 0.07 0.08 0.08 0.05 0.05 0.05 0.07 0.07
0.10 0.06 0.03 0.03 0.03 0.03 0.04 0.03 0.03 0.02 0.03 0.05 0.07 0.08 0.05 0.02 0.01 0.01 0.01 0.01 0.00 0.00 0.00 0.00 0.00 0.00 0.00 0.00 0.00 0.01 0.01 0.02 0.02 0.03 0.04 0.06 0.08 0.08 0.07 0.05 0.07 0.09 0.08
0.16 0.07 0.05 0.06 0.06 0.06 0.06 0.05 0.03 0.06 0.07 0.07 0.07 0.07 0.06 0.04 0.03 0.03 0.03 0.02 0.01 0.00 0.00 0.00 0.00 0.00 0.00 0.00 0.00 0.01 0.01 0.02 0.02 0.03 0.04 0.05 0.05 0.05 0.07 0.05 0.06 0.09 0.11
0.08 0.05 0.04 0.04 0.05 0.05 0.05 0.04 0.03 0.06 0.07 0.07 0.07 0.09 0.09 0.08 0.07 0.07 0.06 0.05 0.02 0.00 0.01 0.01 0.02 0.02 0.01 0.01 0.01 0.01 0.01 0.02 0.03 0.03 0.03 0.04 0.04 0.05 0.07 0.07 0.07 0.09 0.12
0.07 0.05 0.04 0.04 0.04 0.04 0.03 0.02 0.03 0.04 0.06 0.07 0.08 0.09 0.10 0.10 0.11 0.14 0.10 0.08 0.05 0.02 0.03 0.03 0.04 0.03 0.02 0.02 0.02 0.01 0.01 0.02 0.03 0.02 0.04 0.04 0.03 0.05 0.06 0.06 0.08 0.09 0.11
0.03 0.04 0.06 0.06 0.05 0.04 0.04 0.04 0.04 0.05 0.05 0.05 0.06 0.07 0.08 0.09 0.11 0.13 0.12 0.08 0.08 0.05 0.05 0.05 0.05 0.04 0.03 0.03 0.02 0.02 0.02 0.03 0.03 0.02 0.03 0.03 0.04 0.05 0.06 0.07 0.09 0.11 0.11
0.01 0.01 0.02 0.02 0.02 0.02 0.02 0.03 0.03 0.04 0.04 0.03 0.03 0.04 0.06 0.07 0.08 0.08 0.10 0.11 0.10 0.09 0.07 0.07 0.06 0.05 0.04 0.03 0.03 0.02 0.02 0.02 0.03 0.03 0.02 0.03 0.04 0.05 0.06 0.07 0.09 0.11 0.14
0.00 0.00 0.01 0.01 0.01 0.01 0.01 0.02 0.02 0.02 0.02 0.02 0.02 0.02 0.02 0.03 0.05 0.06 0.09 0.11 0.10 0.12 0.11 0.10 0.09 0.08 0.06 0.04 0.04 0.03 0.03 0.03 0.02 0.02 0.03 0.04 0.05 0.06 0.06 0.07 0.09 0.11 0.14
0.00 0.00 0.00 0.00 0.00 0.00 0.00 0.00 0.00 0.00 0.01 0.00 0.00 0.00 0.01 0.02 0.02 0.04 0.06 0.07 0.09 0.10 0.11 0.11 0.10 0.09 0.08 0.06 0.04 0.03 0.02 0.02 0.02 0.03 0.04 0.04 0.05 0.06 0.06 0.07 0.08 0.11 0.13
0.00 0.00 0.00 0.00 0.00 0.00 0.00 0.00 0.00 0.00 0.00 0.00 0.00 0.00 0.01 0.01 0.02 0.02 0.03 0.04 0.06 0.08 0.10 0.10 0.10 0.09 0.08 0.07 0.05 0.03 0.02 0.02 0.02 0.02 0.04 0.05 0.06 0.07 0.08 0.09 0.10 0.11 0.13
0.00 0.00 0.00 0.00 0.00 0.00 0.00 0.00 0.00 0.00 0.00 0.00 0.01 0.01 0.01 0.01 0.01 0.02 0.03 0.04 0.05 0.06 0.08 0.10 0.09 0.08 0.08 0.07 0.06 0.04 0.03 0.02 0.02 0.02 0.04 0.04 0.06 0.07 0.08 0.09 0.11 0.12 0.13
0.00 0.00 0.00 0.00 0.00 0.00 0.00 0.00 0.00 0.00 0.00 0.00 0.00 0.00 0.01 0.01 0.01 0.02 0.02 0.03 0.04 0.05 0.07 0.09 0.09 0.09 0.08 0.06 0.05 0.04 0.03 0.03 0.02 0.02 0.03 0.03 0.04 0.05 0.07 0.08 0.10 0.11 0.11
0.00 0.00 0.00 0.00 0.00 0.00 0.00 0.00 0.00 0.00 0.00 0.00 0.00 0.01 0.01 0.01 0.01 0.01 0.02 0.03 0.05 0.06 0.07 0.07 0.08 0.09 0.08 0.06 0.04 0.04 0.04 0.03 0.03 0.03 0.03 0.03 0.03 0.03 0.04 0.06 0.08 0.09 0.10
0.00 0.00 0.00 0.00 0.00 0.00 0.00 0.00 0.00 0.00 0.00 0.00 0.00 0.00 0.01 0.01 0.01 0.02 0.02 0.04 0.05 0.06 0.06 0.07 0.08 0.09 0.10 0.07 0.04 0.03 0.03 0.04 0.04 0.04 0.03 0.03 0.02 0.03 0.03 0.04 0.05 0.06 0.09
0.00 0.00 0.00 0.00 0.00 0.00 0.00 0.00 0.00 0.00 0.00 0.00 0.00 0.00 0.00 0.01 0.02 0.03 0.04 0.05 0.05 0.06 0.06 0.05 0.07 0.09 0.11 0.10 0.07 0.04 0.03 0.03 0.04 0.05 0.05 0.03 0.02 0.04 0.05 0.05 0.06 0.07 0.09
0.00 0.00 0.00 0.00 0.00 0.00 0.00 0.00 0.00 0.00 0.00 0.00 0.00 0.00 0.01 0.02 0.03 0.04 0.06 0.07 0.07 0.06 0.06 0.06 0.07 0.09 0.11 0.10 0.09 0.08 0.06 0.06 0.05 0.05 0.05 0.04 0.03 0.05 0.06 0.06 0.07 0.08 0.10
0.00 0.00 0.00 0.00 0.00 0.00 0.00 0.00 0.00 0.00 0.00 0.00 0.00 0.00 0.01 0.03 0.04 0.05 0.06 0.08 0.09 0.07 0.07 0.07 0.08 0.10 0.12 0.11 0.09 0.09 0.09 0.10 0.10 0.09 0.05 0.05 0.05 0.05 0.05 0.06 0.07 0.08 0.09
0.00 0.00 0.00 0.00 0.00 0.00 0.01 0.01 0.01 0.01 0.01 0.01 0.02 0.02 0.03 0.04 0.05 0.07 0.08 0.09 0.09 0.10 0.09 0.08 0.08 0.10 0.13 0.13 0.10 0.10 0.12 0.13 0.14 0.12 0.08 0.05 0.06 0.05 0.05 0.05 0.05 0.07 0.08
0.00 0.00 0.00 0.00 0.00 0.01 0.02 0.03 0.02 0.02 0.02 0.02 0.03 0.03 0.04 0.03 0.03 0.07 0.08 0.10 0.11 0.10 0.10 0.12 0.10 0.11 0.14 0.15 0.11 0.11 0.13 0.15 0.15 0.16 0.12 0.06 0.05 0.04 0.05 0.05 0.05 0.05 0.06
0.00 0.00 0.00 0.01 0.01 0.01 0.02 0.03 0.02 0.03 0.03 0.04 0.04 0.05 0.05 0.05 0.05 0.07 0.09 0.10 0.11 0.10 0.10 0.13 0.15 0.15 0.16 0.18 0.16 0.15 0.17 0.18 0.17 0.18 0.16 0.09 0.05 0.05 0.05 0.05 0.04 0.04 0.04
0.00 0.01 0.01 0.01 0.01 0.01 0.02 0.03 0.03 0.04 0.06 0.06 0.06 0.06 0.07 0.06 0.07 0.10 0.10 0.10 0.11 0.11 0.11 0.12 0.16 0.18 0.19 0.21 0.20 0.20 0.21 0.21 0.19 0.17 0.14 0.10 0.06 0.04 0.04 0.04 0.04 0.03 0.04
0.01 0.01 0.02 0.03 0.02 0.02 0.02 0.02 0.04 0.06 0.08 0.07 0.07 0.07 0.08 0.08 0.09 0.10 0.10 0.09 0.10 0.09 0.08 0.09 0.14 0.18 0.21 0.24 0.27 0.26 0.25 0.23 0.19 0.15 0.12 0.09 0.06 0.03 0.03 0.03 0.03 0.03 0.03
0.02 0.02 0.03 0.04 0.03 0.03 0.03 0.03 0.06 0.08 0.09 0.08 0.08 0.09 0.08 0.08 0.09 0.10 0.08 0.05 0.04 0.02 0.02 0.04 0.07 0.11 0.15 0.19 0.23 0.27 0.28 0.27 0.20 0.14 0.12 0.10 0.06 0.03 0.03 0.02 0.01 0.02 0.02
MSLP
1002.01 1002.19 1002.48 1002.88 1003.40 1004.00 1004.68 1005.39 1006.09 1006.75 1007.31 1007.76 1008.10 1008.33 1008.47 1008.56 1008.63 1008.72 1008.84 1009.01 1009.22 1009.44 1009.66 1009.85 1009.98 1010.06 1010.07 1010.03 1009.95 1009.86 1009.77 1009.69 1009.63 1009.58 1009.53 1009.47 1009.37 1009.21 1009.00 1008.74 1008.46 1008.18 1007.94
1002.66 1002.89 1003.21 1003.61 1004.07 1004.60 1005.16 1005.74 1006.32 1006.86 1007.35 1007.75 1008.06 1008.27 1008.40 1008.48 1008.52 1008.58 1008.66 1008.78 1008.96 1009.16 1009.39 1009.60 1009.78 1009.90 1009.97 1009.97 1009.93 1009.85 1009.76 1009.68 1009.60 1009.53 1009.45 1009.34 1009.19 1008.97 1008.68 1008.33 1007.94 1007.55 1007.20
1003.72 1004.00 1004.34 1004.71 1005.10 1005.49 1005.90 1006.30 1006.71 1007.11 1007.48 1007.80 1008.05 1008.23 1008.34 1008.39 1008.40 1008.41 1008.45 1008.53 1008.66 1008.85 1009.07 1009.31 1009.53 1009.71 1009.83 1009.88 1009.88 1009.84 1009.77 1009.68 1009.60 1009.51 1009.40 1009.26 1009.07 1008.80 1008.45 1008.03 1007.55 1007.07 1006.61
1005.03 1005.35 1005.69 1006.02 1006.31 1006.57 1006.80 1007.03 1007.26 1007.49 1007.73 1007.95 1008.14 1008.27 1008.35 1008.36 1008.34 1008.31 1008.29 1008.32 1008.41 1008.57 1008.78 1009.03 1009.28 1009.50 1009.67 1009.77 1009.81 1009.80 1009.75 1009.67 1009.58 1009.49 1009.37 1009.22 1009.01 1008.72 1008.34 1007.87 1007.34 1006.77 1006.22
1006.37 1006.72 1007.06 1007.35 1007.55 1007.69 1007.77 1007.82 1007.89 1007.98 1008.09 1008.22 1008.34 1008.43 1008.47 1008.45 1008.39 1008.31 1008.24 1008.21 1008.25 1008.36 1008.54 1008.78 1009.03 1009.28 1009.48 1009.62 1009.69 1009.70 1009.66 1009.59 1009.52 1009.43 1009.33 1009.19 1008.99 1008.72 1008.34 1007.86 1007.29 1006.67 1006.05
1007.58 1007.95 1008.29 1008.54 1008.67 1008.71 1008.68 1008.61 1008.55 1008.52 1008.54 1008.59 1008.66 1008.71 1008.71 1008.66 1008.56 1008.43 1008.30 1008.21 1008.17 1008.23 1008.36 1008.56 1008.79 1009.02 1009.22 1009.37 1009.45 1009.47 1009.45 1009.40 1009.34 1009.28 1009.21 1009.11 1008.96 1008.72 1008.38 1007.92 1007.36 1006.72 1006.05
1008.54 1008.92 1009.25 1009.48 1009.57 1009.55 1009.45 1009.30 1009.17 1009.07 1009.03 1009.04 1009.06 1009.08 1009.05 1008.97 1008.82 1008.64 1008.44 1008.28 1008.17 1008.14 1008.20 1008.33 1008.51 1008.71 1008.88 1009.00 1009.07 1009.09 1009.08 1009.04 1009.01 1008.98 1008.96 1008.92 1008.84 1008.67 1008.39 1007.99 1007.46 1006.83 1006.14
1009.24 1009.61 1009.92 1010.13 1010.22 1010.17 1010.04 1009.87 1009.71 1009.58 1009.51 1009.49 1009.49 1009.48 1009.42 1009.30 1009.12 1008.87 1008.61 1008.37 1008.17 1008.06 1008.03 1008.08 1008.18 1008.30 1008.41 1008.49 1008.54 1008.54 1008.52 1008.51 1008.50 1008.52 1008.56 1008.59 1008.58 1008.49 1008.29 1007.95 1007.48 1006.89 1006.22
1009.71 1010.05 1010.35 1010.55 1010.62 1010.59 1010.46 1010.29 1010.13 1010.00 1009.93 1009.89 1009.87 1009.83 1009.75 1009.59 1009.35 1009.06 1008.74 1008.42 1008.14 1007.94 1007.81 1007.76 1007.77 1007.80 1007.84 1007.86 1007.86 1007.84 1007.82 1007.82 1007.84 1007.90 1007.99 1008.08 1008.14 1008.12 1007.99 1007.73 1007.32 1006.79 1006.16
1010.05 1010.34 1010.60 1010.78 1010.86 1010.83 1010.73 1010.58 1010.43 1010.31 1010.23 1010.18 1010.14 1010.07 1009.94 1009.75 1009.47 1009.13 1008.76 1008.39 1008.04 1007.76 1007.54 1007.40 1007.31 1007.25 1007.21 1007.16 1007.11 1007.06 1007.03 1007.03 1007.08 1007.17 1007.30 1007.42 1007.53 1007.55 1007.47 1007.25 1006.90 1006.42 1005.86
1010.32 1010.55 1010.76 1010.91 1010.98 1010.96 1010.87 1010.74 1010.61 1010.49 1010.39 1010.31 1010.23 1010.13 1009.96 1009.73 1009.42 1009.06 1008.66 1008.25 1007.86 1007.52 1007.24 1007.02 1006.85 1006.71 1006.59 1006.48 1006.38 1006.30 1006.26 1006.25 1006.30 1006.40 1006.54 1006.67 1006.77 1006.80 1006.72 1006.51 1006.19 1005.76 1005.26
1010.59 1010.74 1010.89 1010.99 1011.02 1010.99 1010.90 1010.78 1010.64 1010.51 1010.39 1010.27 1010.15 1009.99 1009.79 1009.53 1009.20 1008.83 1008.43 1008.02 1007.62 1007.26 1006.94 1006.67 1006.44 1006.23 1006.05 1005.89 1005.75 1005.64 1005.58 1005.57 1005.61 1005.69 1005.79 1005.89 1005.94 1005.92 1005.80 1005.56 1005.23 1004.82 1004.39
1010.84 1010.90 1010.97 1011.01 1011.00 1010.94 1010.83 1010.69 1010.53 1010.37 1010.21 1010.04 1009.86 1009.66 1009.43 1009.15 1008.83 1008.48 1008.10 1007.72 1007.35 1006.99 1006.67 1006.37 1006.10 1005.86 1005.63 1005.44 1005.27 1005.14 1005.06 1005.04 1005.05 1005.10 1005.14 1005.17 1005.13 1005.01 1004.80 1004.49 1004.12 1003.71 1003.32
1011.02 1010.99 1010.97 1010.94 1010.87 1010.77 1010.63 1010.46 1010.26 1010.06 1009.85 1009.63 1009.41 1009.17 1008.91 1008.64 1008.34 1008.02 1007.70 1007.37 1007.05 1006.73 1006.42 1006.13 1005.84 1005.58 1005.33 1005.11 1004.93 1004.80 1004.71 1004.67 1004.66 1004.66 1004.63 1004.56 1004.41 1004.17 1003.84 1003.43 1002.99 1002.56 1002.19
1011.05 1010.93 1010.82 1010.71 1010.59 1010.44 1010.26 1010.05 1009.82 1009.58 1009.32 1009.06 1008.80 1008.54 1008.28 1008.02 1007.76 1007.50 1007.24 1006.98 1006.72 1006.45 1006.17 1005.89 1005.61 1005.34 1005.09 1004.87 1004.69 1004.56 1004.48 1004.43 1004.41 1004.36 1004.27 1004.11 1003.85 1003.48 1003.03 1002.52 1002.00 1001.54 1001.18
1010.87 1010.66 1010.48 1010.30 1010.12 1009.93 1009.72 1009.48 1009.22 1008.94 1008.65 1008.36 1008.08 1007.81 1007.56 1007.33 1007.12 1006.93 1006.74 1006.55 1006.34 1006.12 1005.88 1005.61 1005.34 1005.07 1004.82 1004.61 1004.46 1004.35 1004.30 1004.27 1004.25 1004.19 1004.05 1003.82 1003.47 1003.01 1002.46 1001.86 1001.29 1000.79 1000.45
1010.46 1010.18 1009.92 1009.69 1009.47 1009.25 1009.01 1008.75 1008.47 1008.17 1007.87 1007.57 1007.29 1007.03 1006.81 1006.62 1006.46 1006.33 1006.20 1006.06 1005.90 1005.71 1005.48 1005.23 1004.96 1004.70 1004.47 1004.28 1004.16 1004.10 1004.09 1004.11 1004.12 1004.08 1003.95 1003.69 1003.31 1002.79 1002.19 1001.55 1000.94 1000.44 1000.12
1009.84 1009.50 1009.20 1008.93 1008.68 1008.44 1008.18 1007.92 1007.63 1007.34 1007.04 1006.75 1006.48 1006.25 1006.06 1005.91 1005.80 1005.71 1005.62 1005.51 1005.38 1005.20 1004.97 1004.72 1004.45 1004.19 1003.98 1003.83 1003.75 1003.75 1003.82 1003.91 1003.99 1004.01 1003.92 1003.70 1003.33 1002.83 1002.23 1001.61 1001.02 1000.54 1000.25
1009.10 1008.72 1008.39 1008.10 1007.83 1007.58 1007.33 1007.06 1006.79 1006.50 1006.22 1005.95 1005.71 1005.51 1005.35 1005.24 1005.16 1005.09 1005.02 1004.92 1004.78 1004.60 1004.36 1004.10 1003.82 1003.57 1003.38 1003.27 1003.25 1003.33 1003.48 1003.67 1003.84 1003.95 1003.95 1003.80 1003.51 1003.08 1002.55 1001.99 1001.46 1001.05 1000.81
1008.35 1007.95 1007.61 1007.31 1007.03 1006.77 1006.52 1006.26 1006.00 1005.73 1005.47 1005.23 1005.02 1004.84 1004.71 1004.62 1004.56 1004.50 1004.43 1004.32 1004.17 1003.96 1003.70 1003.42 1003.15 1002.91 1002.75 1002.68 1002.73 1002.88 1003.12 1003.41 1003.68 1003.90 1004.00 1003.97 1003.79 1003.47 1003.05 1002.59 1002.17 1001.85 1001.68
1007.69 1007.29 1006.94 1006.63 1006.35 1006.09 1005.83 1005.57 1005.32 1005.06 1004.82 1004.60 1004.41 1004.26 1004.15 1004.07 1004.01 1003.95 1003.87 1003.75 1003.57 1003.34 1003.08 1002.79 1002.52 1002.31 1002.18 1002.16 1002.27 1002.50 1002.82 1003.19 1003.56 1003.87 1004.08 1004.16 1004.10 1003.91 1003.62 1003.30 1003.00 1002.79 1002.71
1007.19 1006.80 1006.45 1006.13 1005.84 1005.55 1005.28 1005.01 1004.75 1004.50 1004.26 1004.05 1003.88 1003.75 1003.65 1003.58 1003.52 1003.45 1003.35 1003.22 1003.03 1002.80 1002.54 1002.27 1002.03 1001.85 1001.77 1001.80 1001.97 1002.25 1002.63 1003.06 1003.49 1003.87 1004.17 1004.34 1004.38 1004.31 1004.16 1003.97 1003.80 1003.70 1003.71
1006.87 1006.49 1006.13 1005.79 1005.47 1005.15 1004.85 1004.55 1004.26 1004.00 1003.76 1003.56 1003.39 1003.26 1003.17 1003.10 1003.04 1002.97 1002.87 1002.74 1002.57 1002.36 1002.13 1001.90 1001.71 1001.59 1001.56 1001.65 1001.86 1002.18 1002.58 1003.03 1003.48 1003.90 1004.23 1004.45 1004.57 1004.60 1004.55 1004.48 1004.42 1004.43 1004.52
1006.70 1006.32 1005.94 1005.56 1005.19 1004.82 1004.46 1004.12 1003.80 1003.51 1003.26 1003.05 1002.88 1002.75 1002.66 1002.59 1002.54 1002.48 1002.40 1002.29 1002.15 1001.99 1001.82 1001.67 1001.55 1001.51 1001.55 1001.69 1001.93 1002.26 1002.66 1003.09 1003.52 1003.91 1004.23 1004.47 1004.62 1004.70 1004.73 1004.75 1004.79 1004.88 1005.05
1006.61 1006.20 1005.78 1005.35 1004.91 1004.48 1004.05 1003.66 1003.29 1002.97 1002.69 1002.46 1002.29 1002.16 1002.07 1002.01 1001.96 1001.92 1001.87 1001.81 1001.74 1001.65 1001.58 1001.52 1001.50 1001.54 1001.65 1001.84 1002.11 1002.43 1002.80 1003.18 1003.55 1003.87 1004.15 1004.35 1004.50 1004.60 1004.67 1004.75 1004.87 1005.04 1005.27
1006.53 1006.07 1005.58 1005.07 1004.55 1004.04 1003.54 1003.08 1002.67 1002.31 1002.00 1001.76 1001.58 1001.45 1001.36 1001.31 1001.28 1001.27 1001.26 1001.26 1001.26 1001.28 1001.30 1001.36 1001.45 1001.59 1001.78 1002.01 1002.29 1002.60 1002.91 1003.22 1003.50 1003.75 1003.94 1004.10 1004.21 1004.31 1004.41 1004.53 1004.70 1004.93 1005.22
Thickness
5824 5825 5822 5821 5817 5809 5803 5798 5793 5789 5785 5780 5774 5770 5768 5767 5767 5765 5763 5759 5755 5752 5749 5747 5745 5745 5743 5742 5741 5740 5738 5737 5739 5735 5734 5739 5743 5744 5744 5743 5743 5743 5744
5808 5808 5806 5806 5802 5797 5793 5789 5783 5780 5777 5773 5768 5765 5762 5761 5760 5759 5757 5755 5751 5748 5746 5742 5740 5739 5737 5737 5737 5736 5733 5733 5735 5730 5726 5726 5733 5738 5744 5743 5741 5741 5742
5793 5793 5792 5791 5789 5785 5782 5782 5776 5771 5769 5766 5763 5760 5756 5753 5751 5750 5749 5749 5746 5744 5741 5738 5736 5734 5733 5732 5731 5731 5728 5726 5729 5728 5722 5718 5720 5727 5736 5739 5740 5740 5739
5782 5782 5780 5779 5776 5775 5775 5772 5768 5764 5761 5757 5751 5747 5743 5739 5741 5742 5743 5743 5742 5740 5738 5735 5733 5730 5729 5727 5727 5728 5724 5722 5721 5723 5724 5723 5721 5715 5720 5728 5734 5736 5736
5768 5767 5765 5765 5764 5765 5763 5759 5757 5754 5751 5748 5744 5739 5736 5735 5737 5737 5736 5735 5736 5736 5735 5733 5730 5727 5724 5724 5723 5721 5720 5719 5717 5717 5718 5718 5717 5716 5712 5714 5722 5728 5733
5756 5754 5754 5752 5750 5750 5749 5745 5742 5740 5739 5736 5734 5730 5727 5727 5726 5725 5725 5726 5728 5730 5730 5729 5726 5723 5721 5719 5718 5717 5715 5714 5714 5713 5712 5711 5710 5710 5710 5710 5713 5717 5724
5747 5745 5740 5738 5735 5735 5734 5731 5728 5725 5725 5724 5722 5720 5719 5718 5716 5716 5716 5716 5718 5721 5723 5723 5720 5718 5716 5714 5713 5712 5710 5710 5709 5709 5708 5709 5709 5709 5707 5706 5707 5710 5716
5739 5735 5731 5727 5724 5723 5720 5718 5715 5711 5711 5710 5709 5708 5708 5707 5707 5706 5706 5707 5709 5712 5714 5714 5712 5711 5710 5708 5708 5707 5707 5707 5706 5706 5705 5705 5705 5705 5704 5703 5701 5701 5705
5730 5726 5723 5718 5715 5712 5708 5705 5701 5699 5697 5696 5695 5695 5694 5694 5694 5695 5696 5698 5700 5702 5704 5705 5704 5704 5703 5702 5701 5700 5701 5702 5701 5701 5702 5701 5702 5703 5702 5701 5699 5694 5693
5721 5716 5712 5709 5705 5701 5697 5694 5690 5686 5684 5683 5681 5682 5680 5681 5681 5682 5682 5684 5686 5689 5691 5693 5694 5695 5695 5695 5694 5693 5695 5696 5696 5696 5696 5696 5697 5698 5698 5697 5697 5695 5692
5708 5703 5699 5696 5693 5689 5684 5680 5677 5673 5671 5669 5668 5667 5667 5667 5667 5668 5668 5670 5672 5675 5678 5681 5683 5684 5686 5687 5687 5687 5688 5689 5690 5690 5691 5692 5692 5692 5692 5692 5692 5691 5689
5695 5690 5686 5681 5677 5672 5668 5664 5661 5658 5657 5655 5654 5652 5652 5652 5652 5652 5653 5655 5658 5661 5665 5669 5671 5674 5677 5678 5679 5680 5682 5682 5683 5684 5684 5686 5687 5687 5687 5686 5686 5686 5685
5680 5675 5670 5665 5660 5655 5651 5647 5645 5642 5641 5639 5638 5637 5636 5635 5635 5636 5638 5640 5643 5646 5650 5654 5657 5661 5665 5668 5671 5672 5674 5675 5676 5677 5678 5679 5680 5680 5681 5681 5681 5681 5680
5666 5661 5655 5649 5644 5640 5636 5633 5630 5628 5626 5623 5621 5619 5618 5618 5618 5620 5622 5624 5627 5630 5634 5638 5642 5647 5652 5656 5660 5663 5665 5667 5668 5669 5671 5672 5674 5674 5675 5675 5675 5675 5673
5656 5650 5643 5636 5632 5627 5623 5619 5615 5612 5609 5606 5603 5602 5602 5602 5602 5603 5605 5607 5610 5614 5618 5621 5626 5632 5637 5644 5648 5651 5655 5657 5659 5660 5662 5664 5666 5667 5668 5670 5670 5669 5667
5643 5635 5628 5621 5616 5610 5606 5601 5597 5594 5591 5587 5585 5584 5584 5584 5585 5586 5587 5590 5592 5594 5598 5602 5607 5614 5622 5628 5631 5636 5641 5645 5648 5650 5652 5655 5657 5659 5661 5662 5663 5663 5662
5625 5617 5611 5605 5600 5594 5589 5584 5581 5577 5573 5571 5569 5568 5567 5567 5568 5570 5571 5572 5573 5576 5579 5583 5588 5595 5602 5609 5614 5621 5627 5632 5636 5640 5642 5646 5648 5650 5652 5653 5654 5655 5655
5609 5602 5596 5590 5585 5580 5575 5571 5568 5563 5560 5558 5557 5556 5555 5555 5555 5555 5556 5555 5556 5557 5560 5565 5571 5578 5585 5591 5597 5605 5612 5619 5625 5629 5632 5635 5637 5641 5642 5644 5644 5645 5646
5597 5590 5584 5578 5573 5568 5564 5560 5557 5554 5551 5549 5549 5549 5548 5548 5547 5546 5545 5545 5544 5545 5548 5552 5558 5564 5570 5576 5581 5588 5597 5606 5612 5618 5621 5624 5627 5629 5632 5634 5634 5634 5634
5584 5577 5572 5567 5562 5559 5555 5551 5549 5547 5544 5544 5543 5543 5543 5542 5541 5541 5540 5539 5539 5539 5541 5545 5549 5554 5559 5563 5568 5573 5584 5592 5599 5605 5609 5613 5617 5619 5622 5624 5624 5624 5624
5572 5566 5560 5555 5551 5549 5545 5542 5540 5539 5539 5539 5539 5539 5539 5538 5538 5538 5537 5536 5535 5535 5537 5539 5543 5547 5551 5555 5558 5563 5571 5580 5587 5593 5598 5602 5605 5608 5611 5614 5615 5616 5616
5562 5556 5550 5547 5543 5540 5535 5533 5532 5532 5532 5532 5532 5533 5533 5533 5535 5535 5534 5533 5532 5532 5533 5535 5538 5542 5545 5548 5550 5554 5560 5568 5576 5582 5588 5591 5594 5598 5602 5605 5606 5607 5608
5553 5547 5541 5537 5534 5530 5526 5523 5524 5523 5523 5523 5524 5525 5526 5527 5528 5528 5529 5530 5530 5530 5532 5533 5535 5538 5540 5542 5543 5546 5552 5558 5566 5573 5578 5581 5585 5589 5592 5594 5597 5600 5601
5543 5537 5531 5526 5522 5519 5515 5513 5514 5513 5513 5514 5515 5517 5518 5520 5522 5523 5525 5526 5527 5528 5529 5530 5531 5532 5534 5536 5537 5541 5545 5550 5557 5563 5568 5572 5576 5581 5585 5586 5590 5594 5597
5533 5526 5520 5515 5512 5509 5507 5505 5504 5503 5503 5504 5506 5508 5511 5513 5515 5518 5520 5521 5523 5524 5524 5527 5528 5528 5529 5530 5532 5535 5540 5546 5551 5555 5562 5566 5570 5575 5579 5583 5586 5590 5592
5523 5517 5512 5507 5504 5501 5499 5498 5496 5495 5495 5496 5499 5501 5503 5507 5510 5514 5516 5518 5518 5519 5519 5520 5521 5523 5523 5524 5526 5529 5534 5539 5543 5551 5558 5562 5567 5573 5577 5581 5584 5587 5589